* Astronomy

Members Login
Username 
 
Password 
    Remember Me  
Post Info TOPIC: Comet C/2010 G1 (BOATTINI)


L

Posts: 131433
Date:
RE: Comet C/2010 G1 (BOATTINI)
Permalink  
 


Orbital elements:
C/2010 G1 (Boattini)
Epoch 2010 Mar. 25.0 TT = JDT 2455280.5
T 2010 Apr. 2.54029 TT MPC
q 1.2045380 (2000.0) P Q
z +0.0021371 Peri. 168.63168 -0.25611585 -0.24737105
+/-0.0001375 Node 287.44869 +0.79220541 +0.50022675
e 0.9974258 Incl. 78.38725 +0.55390907 -0.82980766

MPEC 2010 - L68


__________________


L

Posts: 131433
Date:
Permalink  
 

Orbital elements:
C/2010 G1 (Boattini)
T 2010 Apr. 2.526 TT MPC
q 1.20501 (2000.0) P Q
Peri. 168.617 -0.255732 -0.247437
Node 287.430 +0.792154 +0.500494
e 1.0 Incl. 78.385 +0.554160 -0.829627
From 259 observations 2010 Apr. 5-May 2.

MPEC 2010 - J05


__________________


L

Posts: 131433
Date:
Permalink  
 

Orbital elements:
C/2010 G1 (Boattini)
T 2010 Apr. 2.528 TT MPC
q 1.20501 (2000.0) P Q
Peri. 168.618 -0.255736 -0.247448
Node 287.430 +0.792171 +0.500463
e 1.0 Incl. 78.384 +0.554134 -0.829642
From 246 observations 2010 Apr. 5-22.

MPEC 2010 - H54


__________________


L

Posts: 131433
Date:
Permalink  
 

Orbital elements:
C/2010 G1 (Boattini)
T 2010 Apr. 2.528 TT MPC
q 1.20502 (2000.0) P Q
Peri. 168.619 -0.255735 -0.247464
Node 287.430 +0.792177 +0.500448
e 1.0 Incl. 78.382 +0.554126 -0.829646
From 232 observations 2010 Apr. 5-17.

MPEC 2010 - H24


__________________


L

Posts: 131433
Date:
Permalink  
 

Orbital elements:
C/2010 G1 (Boattini)
T 2010 Apr. 2.530 TT MPC
q 1.20501 (2000.0) P Q
Peri. 168.621 -0.255746 -0.247475
Node 287.430 +0.792192 +0.500414
e 1.0 Incl. 78.381 +0.554099 -0.829663
From 197 observations 2010 Apr. 5-12.

MPEC 2010 - G103


__________________


L

Posts: 131433
Date:
Permalink  
 

Orbital elements:
C/2010 G1 (Boattini)
T 2010 Apr. 2.800 TT MPC
q 1.20497 (2000.0) P Q
Peri. 168.902 -0.257021 -0.247842
Node 287.453 +0.794660 +0.495845
e 1.0 Incl. 78.283 +0.549960 -0.832293
From 111 observations 2010 Apr. 5-7.

MPEC 2010 - G44


__________________


L

Posts: 131433
Date:
Permalink  
 

Comet C/2010 G1 (Boattini) was discovered by A. Boattini (Catalina Sky Survey) on the 5th April, 2010 .
The preliminary orbital elements of the comet indicate a perihelion passage on the 6th April, 2010, at a distance of 1.2 AU from the Sun.

__________________


L

Posts: 131433
Date:
Permalink  
 

Comet C/2010 G1 = RG14C6D

__________________


L

Posts: 131433
Date:
Permalink  
 

Comet C/2010 G1 (Boattini) was discovery by A. Boattini on the 5th April, 2010.

__________________


L

Posts: 131433
Date:
Permalink  
 

Orbital elements:
C/2010 G1 (Boattini)
T 2010 Apr. 6.688 TT MPC
q 1.20110 (2000.0) P Q
Peri. 172.955 -0.277620 -0.253634
Node 287.856 +0.827089 +0.427570
e 1.0 Incl. 76.780 +0.488724 -0.867671
From 50 observations 2010 Apr. 5-6.

MPEC 2010 - G27


__________________
Page 1 of 1  sorted by
Quick Reply

Please log in to post quick replies.



Create your own FREE Forum
Report Abuse
Powered by ActiveBoard